Year,Month,Day,Hour,Minute,Value (Times are PST for temperature in C)
2007,01,12,00,00,-5.70
2007,01,12,00,01,-5.70
2007,01,12,00,02,-5.70
2007,01,12,00,03,-5.70
2007,01,12,00,04,-5.70
2007,01,12,00,05,-5.70
2007,01,12,00,06,-5.80
2007,01,12,00,07,-5.80
2007,01,12,00,08,-5.80
2007,01,12,00,09,-5.70
2007,01,12,00,10,-5.70
2007,01,12,00,11,-5.70
2007,01,12,00,12,-5.70
2007,01,12,01,02,-6.50
2007,01,12,01,03,-6.50
2007,01,12,01,04,-6.50
2007,01,12,01,05,-6.50
2007,01,12,01,06,-6.50
2007,01,12,01,07,-6.50
2007,01,12,01,08,-6.50
2007,01,12,01,09,-6.60
2007,01,12,01,10,-6.60
2007,01,12,01,11,-6.60
2007,01,12,01,12,-6.60
2007,01,12,01,13,-6.70
2007,01,12,01,14,-6.70
2007,01,12,01,15,-6.80
2007,01,12,01,16,-6.80
2007,01,12,01,17,-6.80
2007,01,12,01,18,-6.80
2007,01,12,01,19,-6.80
2007,01,12,01,20,-6.90
2007,01,12,01,21,-6.90
2007,01,12,01,22,-6.90
2007,01,12,01,23,-6.90
2007,01,12,01,24,-6.90
2007,01,12,01,25,-6.90
2007,01,12,01,26,-7.00
2007,01,12,01,27,-7.00
2007,01,12,01,28,-7.00
2007,01,12,01,29,-7.00
2007,01,12,01,30,-7.10
2007,01,12,01,31,-7.10
2007,01,12,01,32,-7.10
2007,01,12,01,33,-7.10
2007,01,12,01,34,-7.10
2007,01,12,01,35,-7.10
2007,01,12,01,36,-7.10
2007,01,12,01,37,-7.10
2007,01,12,01,38,-7.00
2007,01,12,01,39,-7.00
2007,01,12,01,40,-7.10
2007,01,12,01,41,-7.10
2007,01,12,01,42,-7.10
2007,01,12,01,43,-7.10
2007,01,12,01,44,-7.10
2007,01,12,01,45,-7.10
2007,01,12,01,46,-7.10
2007,01,12,01,47,-7.10
2007,01,12,01,48,-7.10
2007,01,12,01,49,-7.00
2007,01,12,01,50,-7.00
2007,01,12,01,51,-7.10
2007,01,12,01,52,-7.10
2007,01,12,01,53,-7.10
2007,01,12,01,54,-7.10
2007,01,12,01,55,-7.10
2007,01,12,01,56,-7.10
2007,01,12,01,57,-7.10
2007,01,12,01,58,-7.10
2007,01,12,01,59,-7.10
2007,01,12,02,00,-7.20
2007,01,12,02,01,-7.20
2007,01,12,02,02,-7.20
2007,01,12,02,03,-7.20
2007,01,12,02,04,-7.20
2007,01,12,02,05,-7.20
2007,01,12,02,06,-7.20
2007,01,12,02,07,-7.30
2007,01,12,02,08,-7.30
2007,01,12,02,09,-7.30
2007,01,12,02,10,-7.30
2007,01,12,02,11,-7.30
2007,01,12,02,12,-7.40
2007,01,12,02,13,-7.40
2007,01,12,02,14,-7.40
2007,01,12,02,15,-7.40
2007,01,12,02,16,-7.40
2007,01,12,02,17,-7.40
2007,01,12,02,18,-7.40
2007,01,12,02,19,-7.40
2007,01,12,02,20,-7.40
2007,01,12,02,21,-7.40
2007,01,12,02,22,-7.40
2007,01,12,02,23,-7.30
2007,01,12,02,24,-7.30
2007,01,12,02,25,-7.30
2007,01,12,02,26,-7.20
2007,01,12,02,27,-7.20
2007,01,12,02,28,-7.20
2007,01,12,02,29,-7.20
2007,01,12,02,30,-7.20
2007,01,12,02,31,-7.20
2007,01,12,02,32,-7.20
2007,01,12,02,33,-7.20
2007,01,12,02,34,-7.20
2007,01,12,02,35,-7.20
2007,01,12,02,36,-7.30
2007,01,12,02,37,-7.30
2007,01,12,02,38,-7.20
2007,01,12,02,39,-7.20
2007,01,12,02,40,-7.20
2007,01,12,02,41,-7.20
2007,01,12,02,42,-7.20
2007,01,12,02,43,-7.30
2007,01,12,02,44,-7.30
2007,01,12,02,45,-7.30
2007,01,12,02,46,-7.30
2007,01,12,02,47,-7.30
2007,01,12,02,48,-7.30
2007,01,12,02,49,-7.20
2007,01,12,02,50,-7.20
2007,01,12,02,51,-7.20
2007,01,12,02,52,-7.20
2007,01,12,02,53,-7.20
2007,01,12,02,54,-7.20
2007,01,12,02,55,-7.20
2007,01,12,02,56,-7.20
2007,01,12,02,57,-7.20
2007,01,12,02,58,-7.20
2007,01,12,02,59,-7.20
2007,01,12,03,00,-7.20
2007,01,12,03,01,-7.20
2007,01,12,03,02,-7.20
2007,01,12,03,03,-7.20
2007,01,12,03,04,-7.10
2007,01,12,03,05,-7.10
2007,01,12,03,06,-7.10
2007,01,12,03,07,-7.00
2007,01,12,03,08,-7.00
2007,01,12,03,09,-7.00
2007,01,12,03,10,-6.90
2007,01,12,03,11,-7.00
2007,01,12,03,12,-7.00
2007,01,12,03,13,-7.00
2007,01,12,03,14,-7.00
2007,01,12,03,15,-7.00
2007,01,12,03,16,-7.10
2007,01,12,03,17,-7.10
2007,01,12,03,18,-7.10
2007,01,12,03,19,-7.10
2007,01,12,03,20,-7.10
2007,01,12,03,21,-7.10
2007,01,12,03,22,-7.10
2007,01,12,03,23,-7.10
2007,01,12,03,24,-7.10
2007,01,12,03,25,-7.10
2007,01,12,03,26,-7.00
2007,01,12,03,27,-7.00
2007,01,12,03,28,-7.00
2007,01,12,03,29,-7.10
2007,01,12,03,30,-7.10
2007,01,12,03,31,-7.20
2007,01,12,03,32,-7.20
2007,01,12,03,33,-7.20
2007,01,12,03,34,-7.20
2007,01,12,03,35,-7.30
2007,01,12,03,36,-7.30
2007,01,12,03,37,-7.30
2007,01,12,03,38,-7.30
2007,01,12,03,39,-7.30
2007,01,12,03,40,-7.30
2007,01,12,03,41,-7.20
2007,01,12,03,42,-7.20
2007,01,12,03,43,-7.20
2007,01,12,03,44,-7.10
2007,01,12,03,45,-7.10
2007,01,12,03,46,-7.10
2007,01,12,03,47,-7.10
2007,01,12,03,48,-7.10
2007,01,12,03,49,-7.10
2007,01,12,03,50,-7.10
2007,01,12,03,51,-7.00
2007,01,12,03,52,-7.00
2007,01,12,03,53,-6.90
2007,01,12,03,54,-6.90
2007,01,12,03,55,-6.80
2007,01,12,03,56,-6.80
2007,01,12,03,57,-6.90
2007,01,12,03,58,-6.90
2007,01,12,03,59,-6.90
2007,01,12,04,00,-6.90
2007,01,12,04,01,-6.90
2007,01,12,04,02,-6.90
2007,01,12,04,03,-7.00
2007,01,12,04,04,-7.00
2007,01,12,04,05,-7.10
2007,01,12,04,06,-7.10
2007,01,12,04,07,-7.10
2007,01,12,04,08,-7.20
2007,01,12,04,09,-7.20
2007,01,12,04,10,-7.20
2007,01,12,04,11,-7.20
2007,01,12,04,12,-7.20
2007,01,12,04,13,-7.20
2007,01,12,04,14,-7.20
2007,01,12,04,15,-7.20
2007,01,12,04,16,-7.20
2007,01,12,04,17,-7.20
2007,01,12,04,18,-7.20
2007,01,12,04,19,-7.30
2007,01,12,04,20,-7.30
2007,01,12,04,21,-7.30
2007,01,12,04,22,-7.30
2007,01,12,04,23,-7.30
2007,01,12,04,24,-7.40
2007,01,12,04,25,-7.40
2007,01,12,04,26,-7.40
2007,01,12,04,27,-7.40
2007,01,12,04,28,-7.40
2007,01,12,04,29,-7.40
2007,01,12,04,30,-7.40
2007,01,12,04,31,-7.40
2007,01,12,04,32,-7.40
2007,01,12,04,33,-7.40
2007,01,12,04,34,-7.50
2007,01,12,04,35,-7.50
2007,01,12,04,36,-7.50
2007,01,12,04,37,-7.50
2007,01,12,04,38,-7.50
2007,01,12,04,39,-7.50
2007,01,12,04,40,-7.50
2007,01,12,04,41,-7.50
2007,01,12,04,42,-7.60
2007,01,12,04,43,-7.60
2007,01,12,04,44,-7.60
2007,01,12,04,45,-7.60
2007,01,12,04,46,-7.60
2007,01,12,04,47,-7.60
2007,01,12,04,48,-7.60
2007,01,12,04,49,-7.60
2007,01,12,04,50,-7.60
2007,01,12,04,51,-7.60
2007,01,12,04,52,-7.60
2007,01,12,04,53,-7.60
2007,01,12,04,54,-7.70
2007,01,12,04,55,-7.70
2007,01,12,04,56,-7.70
2007,01,12,04,57,-7.70
2007,01,12,04,58,-7.70
2007,01,12,04,59,-7.70
2007,01,12,05,00,-7.70
2007,01,12,05,01,-7.70
2007,01,12,05,02,-7.70
2007,01,12,05,03,-7.70
2007,01,12,05,04,-7.70
2007,01,12,05,05,-7.70
2007,01,12,05,06,-7.70
2007,01,12,05,07,-7.70
2007,01,12,05,08,-7.70
2007,01,12,05,09,-7.70
2007,01,12,05,10,-7.70
2007,01,12,05,11,-7.70
2007,01,12,05,12,-7.70
2007,01,12,05,13,-7.70
2007,01,12,05,14,-7.70
2007,01,12,05,15,-7.70
2007,01,12,05,16,-7.70
2007,01,12,05,17,-7.70
2007,01,12,05,18,-7.70
2007,01,12,05,19,-7.70
2007,01,12,05,20,-7.70
2007,01,12,05,21,-7.80
2007,01,12,05,22,-7.80
2007,01,12,05,23,-7.80
2007,01,12,05,24,-7.80
2007,01,12,05,25,-7.80
2007,01,12,05,26,-7.80
2007,01,12,05,27,-7.80
2007,01,12,05,28,-7.80
2007,01,12,05,29,-7.80
2007,01,12,05,30,-7.80
2007,01,12,05,31,-7.80
2007,01,12,05,32,-7.80
2007,01,12,05,33,-7.80
2007,01,12,05,34,-7.80
2007,01,12,05,35,-7.70
2007,01,12,05,36,-7.70
2007,01,12,05,37,-7.60
2007,01,12,05,38,-7.50
2007,01,12,05,39,-7.50
2007,01,12,05,40,-7.40
2007,01,12,05,41,-7.40
2007,01,12,05,42,-7.40
2007,01,12,05,43,-7.30
2007,01,12,05,44,-7.30
2007,01,12,05,45,-7.40
2007,01,12,05,46,-7.40
2007,01,12,05,47,-7.40
2007,01,12,05,48,-7.40
2007,01,12,05,49,-7.40
2007,01,12,05,50,-7.40
2007,01,12,05,51,-7.40
2007,01,12,05,52,-7.40
2007,01,12,05,53,-7.40
2007,01,12,05,54,-7.40
2007,01,12,05,55,-7.40
2007,01,12,05,56,-7.40
2007,01,12,05,57,-7.40
2007,01,12,05,58,-7.40
2007,01,12,05,59,-7.40
2007,01,12,06,00,-7.30
2007,01,12,06,01,-7.30
2007,01,12,06,02,-7.30
2007,01,12,06,03,-7.30
2007,01,12,06,04,-7.30
2007,01,12,06,05,-7.30
2007,01,12,06,06,-7.30
2007,01,12,06,07,-7.20
2007,01,12,06,08,-7.20
2007,01,12,06,09,-7.20
2007,01,12,06,10,-7.20
2007,01,12,06,11,-7.20
2007,01,12,06,12,-7.20
2007,01,12,06,13,-7.20
2007,01,12,06,14,-7.20
2007,01,12,06,15,-7.10
2007,01,12,06,16,-7.10
2007,01,12,06,17,-7.10
2007,01,12,06,18,-7.10
2007,01,12,06,19,-7.10
2007,01,12,06,20,-7.10
2007,01,12,06,21,-7.10
2007,01,12,06,22,-7.10
2007,01,12,06,23,-7.10
2007,01,12,06,24,-7.10
2007,01,12,06,25,-7.10
2007,01,12,06,26,-7.10
2007,01,12,06,27,-7.10
2007,01,12,06,28,-7.00
2007,01,12,06,29,-7.00
2007,01,12,06,30,-7.00
2007,01,12,06,31,-7.00
2007,01,12,06,32,-7.00
2007,01,12,06,33,-7.00
2007,01,12,06,34,-7.00
2007,01,12,06,35,-7.00
2007,01,12,06,36,-7.00
2007,01,12,06,37,-7.00
2007,01,12,06,38,-7.00
2007,01,12,06,39,-7.10
2007,01,12,06,40,-7.00
2007,01,12,06,41,-7.10
2007,01,12,06,42,-7.10
2007,01,12,06,43,-7.10
2007,01,12,06,44,-7.10
2007,01,12,06,45,-7.10
2007,01,12,06,46,-7.10
2007,01,12,06,47,-7.10
2007,01,12,06,48,-7.10
2007,01,12,06,49,-7.20
2007,01,12,06,50,-7.20
2007,01,12,06,51,-7.20
2007,01,12,06,52,-7.20
2007,01,12,06,53,-7.20
2007,01,12,06,54,-7.20
2007,01,12,06,55,-7.20
2007,01,12,06,56,-7.20
2007,01,12,06,57,-7.20
2007,01,12,06,58,-7.20
2007,01,12,06,59,-7.20
2007,01,12,07,00,-7.20
2007,01,12,07,01,-7.20
2007,01,12,07,02,-7.20
2007,01,12,07,03,-7.20
2007,01,12,07,04,-7.10
2007,01,12,07,05,-7.10
2007,01,12,07,06,-7.00
2007,01,12,07,07,-6.90
2007,01,12,07,08,-6.80
2007,01,12,07,09,-6.80
2007,01,12,07,10,-6.80
2007,01,12,07,11,-6.80
2007,01,12,07,12,-6.80
2007,01,12,07,13,-6.80
2007,01,12,07,14,-6.80
2007,01,12,07,15,-6.70
2007,01,12,07,16,-6.70
2007,01,12,07,17,-6.70
2007,01,12,07,18,-6.70
2007,01,12,07,19,-6.70
2007,01,12,07,20,-6.70
2007,01,12,07,21,-6.70
2007,01,12,07,22,-6.70
2007,01,12,07,23,-6.80
2007,01,12,07,24,-6.80
2007,01,12,07,25,-6.80
2007,01,12,07,26,-6.80
2007,01,12,07,27,-6.80
2007,01,12,07,28,-6.80
2007,01,12,07,29,-6.80
2007,01,12,07,30,-6.80
2007,01,12,07,31,-6.80
2007,01,12,07,32,-6.80
2007,01,12,07,33,-6.80
2007,01,12,07,34,-6.80
2007,01,12,07,35,-6.90
2007,01,12,07,36,-6.90
2007,01,12,07,37,-6.90
2007,01,12,07,38,-6.90
2007,01,12,07,39,-6.90
2007,01,12,07,40,-7.00
2007,01,12,07,41,-7.00
2007,01,12,07,42,-7.00
2007,01,12,07,43,-7.00
2007,01,12,07,44,-7.10
2007,01,12,07,45,-7.10
2007,01,12,07,46,-7.00
2007,01,12,07,47,-7.00
2007,01,12,07,48,-6.90
2007,01,12,07,49,-6.90
2007,01,12,07,50,-6.90
2007,01,12,07,51,-6.90
2007,01,12,07,52,-6.90
2007,01,12,07,53,-6.90
2007,01,12,07,54,-6.80
2007,01,12,07,55,-6.80
2007,01,12,07,56,-6.80
2007,01,12,07,57,-6.80
2007,01,12,07,58,-6.70
2007,01,12,07,59,-6.70
2007,01,12,08,00,-6.60
2007,01,12,08,01,-6.60
2007,01,12,08,02,-6.60
2007,01,12,08,03,-6.60
2007,01,12,08,04,-6.60
2007,01,12,08,05,-6.60
2007,01,12,08,06,-6.60
2007,01,12,08,07,-6.60
2007,01,12,08,08,-6.60
2007,01,12,08,09,-6.60
2007,01,12,08,10,-6.60
2007,01,12,08,11,-6.60
2007,01,12,08,12,-6.60
2007,01,12,08,13,-6.50
2007,01,12,08,14,-6.50
2007,01,12,08,15,-6.50
2007,01,12,08,16,-6.50
2007,01,12,08,17,-6.50
2007,01,12,08,18,-6.60
2007,01,12,08,19,-6.60
2007,01,12,08,20,-6.60
2007,01,12,08,21,-6.60
2007,01,12,08,22,-6.60
2007,01,12,08,23,-6.60
2007,01,12,08,24,-6.50
2007,01,12,08,25,-6.50
2007,01,12,08,26,-6.50
2007,01,12,08,27,-6.40
2007,01,12,08,28,-6.40
2007,01,12,08,29,-6.40
2007,01,12,08,30,-6.40
2007,01,12,08,31,-6.30
2007,01,12,08,32,-6.30
2007,01,12,08,33,-6.30
2007,01,12,08,34,-6.30
2007,01,12,08,35,-6.20
2007,01,12,08,36,-6.20
2007,01,12,08,37,-6.20
2007,01,12,08,38,-6.20
2007,01,12,08,39,-6.20
2007,01,12,08,40,-6.10
2007,01,12,08,41,-6.10
2007,01,12,08,42,-6.00
2007,01,12,08,43,-5.90
2007,01,12,08,44,-5.90
2007,01,12,08,45,-5.80
2007,01,12,08,46,-5.80
2007,01,12,08,47,-5.70
2007,01,12,08,48,-5.70
2007,01,12,08,49,-5.70
2007,01,12,08,50,-5.60
2007,01,12,08,51,-5.50
2007,01,12,08,52,-5.50
2007,01,12,08,53,-5.40
2007,01,12,08,54,-5.40
2007,01,12,08,55,-5.40
2007,01,12,08,56,-5.40
2007,01,12,08,57,-5.30
2007,01,12,08,58,-5.30
2007,01,12,08,59,-5.30
2007,01,12,09,00,-5.30
2007,01,12,09,01,-5.30
2007,01,12,09,02,-5.30
2007,01,12,09,03,-5.30
2007,01,12,09,04,-5.30
2007,01,12,09,05,-5.30
2007,01,12,09,06,-5.30
2007,01,12,09,07,-5.30
2007,01,12,09,08,-5.20
2007,01,12,09,09,-5.20
2007,01,12,09,10,-5.20
2007,01,12,09,11,-5.10
2007,01,12,09,12,-5.10
2007,01,12,09,13,-5.00
2007,01,12,09,14,-5.00
2007,01,12,09,15,-5.00
2007,01,12,09,16,-4.90
2007,01,12,09,17,-4.90
2007,01,12,09,18,-4.90
2007,01,12,09,19,-4.80
2007,01,12,09,20,-4.80
2007,01,12,09,21,-4.80
2007,01,12,09,22,-4.80
2007,01,12,09,23,-4.70
2007,01,12,09,24,-4.70
2007,01,12,09,25,-4.70
2007,01,12,09,26,-4.70
2007,01,12,09,27,-4.70
2007,01,12,09,28,-4.70
2007,01,12,09,29,-4.70
2007,01,12,09,30,-4.70
2007,01,12,09,31,-4.60
2007,01,12,09,32,-4.60
2007,01,12,09,33,-4.60
2007,01,12,09,34,-4.60
2007,01,12,09,35,-4.60
2007,01,12,09,36,-4.60
2007,01,12,09,37,-4.50
2007,01,12,09,38,-4.50
2007,01,12,09,39,-4.40
2007,01,12,09,40,-4.40
2007,01,12,09,41,-4.30
2007,01,12,09,42,-4.30
2007,01,12,09,43,-4.20
2007,01,12,09,44,-4.20
2007,01,12,09,45,-4.10
2007,01,12,09,46,-4.10
2007,01,12,09,47,-4.00
2007,01,12,09,48,-4.00
2007,01,12,09,49,-3.90
2007,01,12,09,50,-3.90
2007,01,12,09,51,-3.90
2007,01,12,09,52,-3.80
2007,01,12,09,53,-3.80
2007,01,12,09,54,-3.80
2007,01,12,09,55,-3.80
2007,01,12,09,56,-3.80
2007,01,12,09,57,-3.80
2007,01,12,09,58,-3.70
2007,01,12,09,59,-3.70
2007,01,12,10,00,-3.70
2007,01,12,10,01,-3.60
2007,01,12,10,02,-3.50
2007,01,12,10,03,-3.50
2007,01,12,10,04,-3.40
2007,01,12,10,05,-3.40
2007,01,12,10,06,-3.30
2007,01,12,10,07,-3.30
2007,01,12,10,08,-3.30
2007,01,12,10,09,-3.20
2007,01,12,10,10,-3.20
2007,01,12,10,11,-3.20
2007,01,12,10,12,-3.10
2007,01,12,10,13,-3.10
2007,01,12,10,14,-3.10
2007,01,12,10,15,-3.00
2007,01,12,10,16,-2.90
2007,01,12,10,17,-2.90
2007,01,12,10,18,-2.90
2007,01,12,10,19,-2.80
2007,01,12,10,20,-2.80
2007,01,12,10,21,-2.80
2007,01,12,10,22,-2.70
2007,01,12,10,23,-2.70
2007,01,12,10,24,-2.60
2007,01,12,10,25,-2.60
2007,01,12,10,26,-2.60
2007,01,12,10,27,-2.50
2007,01,12,10,28,-2.50
2007,01,12,10,29,-2.40
2007,01,12,10,30,-2.40
2007,01,12,10,31,-2.40
2007,01,12,10,32,-2.30
2007,01,12,10,33,-2.30
2007,01,12,10,34,-2.30
2007,01,12,10,35,-2.30
2007,01,12,10,36,-2.30
2007,01,12,10,37,-2.30
2007,01,12,10,38,-2.30
2007,01,12,10,39,-2.30
2007,01,12,10,40,-2.30
2007,01,12,10,41,-2.30
2007,01,12,10,42,-2.30
2007,01,12,10,43,-2.30
2007,01,12,10,44,-2.30
2007,01,12,10,45,-2.30
2007,01,12,10,46,-2.30
2007,01,12,10,47,-2.30
2007,01,12,10,48,-2.30
2007,01,12,10,49,-2.30
2007,01,12,10,50,-2.30
2007,01,12,10,51,-2.30
2007,01,12,10,52,-2.30
2007,01,12,10,53,-2.30
2007,01,12,10,54,-2.20
2007,01,12,10,55,-2.20
2007,01,12,10,56,-2.20
2007,01,12,10,57,-2.20
2007,01,12,10,58,-2.20
2007,01,12,10,59,-2.10
2007,01,12,11,00,-2.10
2007,01,12,11,01,-2.00
2007,01,12,11,02,-2.00
2007,01,12,11,03,-1.90
2007,01,12,11,04,-1.90
2007,01,12,11,05,-1.90
2007,01,12,11,06,-1.80
2007,01,12,11,07,-1.80
2007,01,12,11,08,-1.80
2007,01,12,11,09,-1.80
2007,01,12,11,10,-1.80
2007,01,12,11,11,-1.70
2007,01,12,11,12,-1.70
2007,01,12,11,13,-1.70
2007,01,12,11,14,-1.60
2007,01,12,11,15,-1.60
2007,01,12,11,16,-1.50
2007,01,12,11,17,-1.50
2007,01,12,11,18,-1.40
2007,01,12,11,19,-1.40
2007,01,12,11,20,-1.30
2007,01,12,11,21,-1.30
2007,01,12,11,22,-1.20
2007,01,12,11,23,-1.20
2007,01,12,11,24,-1.20
2007,01,12,11,25,-1.20
2007,01,12,11,26,-1.10
2007,01,12,11,27,-1.10
2007,01,12,11,28,-1.10
2007,01,12,11,29,-1.00
2007,01,12,11,30,-1.00
2007,01,12,11,31,-0.90
2007,01,12,11,32,-0.90
2007,01,12,11,33,-0.90
2007,01,12,11,34,-0.80
2007,01,12,11,35,-0.80
2007,01,12,11,36,-0.80
2007,01,12,11,37,-0.80
2007,01,12,11,38,-0.70
2007,01,12,11,39,-0.70
2007,01,12,11,40,-0.60
2007,01,12,11,41,-0.60
2007,01,12,11,42,-0.60
2007,01,12,11,43,-0.50
2007,01,12,11,44,-0.50
2007,01,12,11,45,-0.40
2007,01,12,11,46,-0.40
2007,01,12,11,47,-0.40
2007,01,12,11,48,-0.30
2007,01,12,11,49,-0.30
2007,01,12,11,50,-0.30
2007,01,12,11,51,-0.30
2007,01,12,11,52,-0.30
2007,01,12,11,53,-0.30
2007,01,12,11,54,-0.30
2007,01,12,11,55,-0.30
2007,01,12,11,56,-0.20
2007,01,12,11,57,-0.20
2007,01,12,11,58,-0.20
2007,01,12,11,59,-0.20
2007,01,12,12,00,-0.20
2007,01,12,12,01,-0.20
2007,01,12,12,02,-0.10
2007,01,12,12,03,-0.10
2007,01,12,12,04,-0.10
2007,01,12,12,05,-0.10
2007,01,12,12,06,-0.10
2007,01,12,12,07,-0.10
2007,01,12,12,08,-0.20
2007,01,12,12,09,-0.20
2007,01,12,12,10,-0.20
2007,01,12,12,11,-0.20
2007,01,12,12,12,-0.20
2007,01,12,12,13,-0.30
2007,01,12,12,14,-0.30
2007,01,12,12,15,-0.40
2007,01,12,12,16,-0.40
2007,01,12,12,17,-0.40
2007,01,12,12,18,-0.40
2007,01,12,12,19,-0.40
2007,01,12,12,20,-0.40
2007,01,12,12,21,-0.30
2007,01,12,12,22,-0.20
2007,01,12,12,23,-0.20
2007,01,12,12,24,-0.10
2007,01,12,12,25,0.00
2007,01,12,12,26,0.00
2007,01,12,12,27,0.10
2007,01,12,12,28,0.10
2007,01,12,12,29,0.10
2007,01,12,12,30,0.10
2007,01,12,12,31,0.00
2007,01,12,12,32,0.00
2007,01,12,12,33,0.00
2007,01,12,12,34,0.10
2007,01,12,12,35,0.20
2007,01,12,12,36,0.30
2007,01,12,12,37,0.30
2007,01,12,12,38,0.30
2007,01,12,12,39,0.30
2007,01,12,12,40,0.30
2007,01,12,12,41,0.20
2007,01,12,12,42,0.20
2007,01,12,12,43,0.10
2007,01,12,12,44,0.20
2007,01,12,12,45,0.20
2007,01,12,12,46,0.20
2007,01,12,12,47,0.30
2007,01,12,12,48,0.30
2007,01,12,12,49,0.30
2007,01,12,12,50,0.30
2007,01,12,12,51,0.20
2007,01,12,12,52,0.20
2007,01,12,12,53,0.10
2007,01,12,12,54,0.10
2007,01,12,12,55,0.10
2007,01,12,12,56,0.10
2007,01,12,12,57,0.10
2007,01,12,12,58,0.10
2007,01,12,12,59,0.10
2007,01,12,13,00,0.10
2007,01,12,13,01,0.10
2007,01,12,13,02,0.00
2007,01,12,13,03,0.00
2007,01,12,13,04,0.00
2007,01,12,13,05,-0.10
2007,01,12,13,06,-0.10
2007,01,12,13,07,-0.10
2007,01,12,13,08,-0.10
2007,01,12,13,09,-0.20
2007,01,12,13,10,-0.20
2007,01,12,13,11,-0.20
2007,01,12,13,12,-0.20
2007,01,12,13,13,-0.20
2007,01,12,13,14,-0.20
2007,01,12,13,15,-0.20
2007,01,12,13,16,-0.20
2007,01,12,13,17,-0.10
2007,01,12,13,18,-0.10
2007,01,12,13,19,-0.10
2007,01,12,13,20,-0.10
2007,01,12,13,21,-0.10
2007,01,12,13,22,-0.10
2007,01,12,13,23,-0.10
2007,01,12,13,24,-0.10
2007,01,12,13,25,-0.10
2007,01,12,13,26,-0.20
2007,01,12,13,27,-0.20
2007,01,12,13,28,-0.20
2007,01,12,13,29,-0.20
2007,01,12,13,30,-0.20
2007,01,12,13,31,-0.20
2007,01,12,13,32,-0.20
2007,01,12,13,33,-0.30
2007,01,12,13,34,-0.30
2007,01,12,13,35,-0.30
2007,01,12,13,36,-0.30
2007,01,12,13,37,-0.30
2007,01,12,13,38,-0.30
2007,01,12,13,39,-0.30
2007,01,12,13,40,-0.30
2007,01,12,13,41,-0.30
2007,01,12,13,42,-0.30
2007,01,12,13,43,-0.30
2007,01,12,13,44,-0.30
2007,01,12,13,45,-0.30
2007,01,12,13,46,-0.30
2007,01,12,13,47,-0.30
2007,01,12,13,48,-0.30
2007,01,12,13,49,-0.30
2007,01,12,13,50,-0.30
2007,01,12,13,51,-0.30
2007,01,12,13,52,-0.30
2007,01,12,13,53,-0.30
2007,01,12,13,54,-0.30
2007,01,12,13,55,-0.30
2007,01,12,13,56,-0.30
2007,01,12,13,57,-0.30
2007,01,12,13,58,-0.30
2007,01,12,13,59,-0.30
2007,01,12,14,00,-0.30
2007,01,12,14,01,-0.30
2007,01,12,14,02,-0.30
2007,01,12,14,03,-0.30
2007,01,12,14,04,-0.30
2007,01,12,14,05,-0.20
2007,01,12,14,06,-0.20
2007,01,12,14,07,-0.20
2007,01,12,14,08,-0.20
2007,01,12,14,09,-0.20
2007,01,12,14,10,-0.20
2007,01,12,14,11,-0.30
2007,01,12,14,12,-0.30
2007,01,12,14,13,-0.30
2007,01,12,14,14,-0.30
2007,01,12,14,15,-0.30
2007,01,12,14,16,-0.30
2007,01,12,14,17,-0.30
2007,01,12,14,18,-0.30
2007,01,12,14,19,-0.30
2007,01,12,14,20,-0.30
2007,01,12,14,21,-0.30
2007,01,12,14,22,-0.30
2007,01,12,14,23,-0.30
2007,01,12,14,24,-0.30
2007,01,12,14,25,-0.30
2007,01,12,14,26,-0.20
2007,01,12,14,27,-0.20
2007,01,12,14,28,-0.20
2007,01,12,14,29,-0.20
2007,01,12,14,30,-0.20
2007,01,12,14,31,-0.20
2007,01,12,14,32,-0.20
2007,01,12,14,33,-0.20
2007,01,12,14,34,-0.20
2007,01,12,14,35,-0.20
2007,01,12,14,36,-0.20
2007,01,12,14,37,-0.20
2007,01,12,14,38,-0.20
2007,01,12,14,39,-0.20
2007,01,12,14,40,-0.20
2007,01,12,14,41,-0.20
2007,01,12,14,42,-0.30
2007,01,12,14,43,-0.30
2007,01,12,14,44,-0.30
2007,01,12,14,45,-0.30
2007,01,12,14,46,-0.30
2007,01,12,14,47,-0.30
2007,01,12,14,48,-0.30
2007,01,12,14,49,-0.30
2007,01,12,14,50,-0.20
2007,01,12,14,51,-0.20
2007,01,12,14,52,-0.20
2007,01,12,14,53,-0.20
2007,01,12,14,54,-0.20
2007,01,12,14,55,-0.20
2007,01,12,14,56,-0.20
2007,01,12,14,57,-0.20
2007,01,12,14,58,-0.20
2007,01,12,14,59,-0.20
2007,01,12,15,00,-0.20
2007,01,12,15,01,-0.10
2007,01,12,15,02,-0.10
2007,01,12,15,03,-0.10
2007,01,12,15,04,-0.10
2007,01,12,15,05,-0.10
2007,01,12,15,06,-0.10
2007,01,12,15,07,-0.10
2007,01,12,15,08,-0.10
2007,01,12,15,09,-0.10
2007,01,12,15,10,-0.10
2007,01,12,15,11,-0.10
2007,01,12,15,12,0.00
2007,01,12,15,13,0.00
2007,01,12,15,14,0.00
2007,01,12,15,15,0.00
2007,01,12,15,16,0.10
2007,01,12,15,17,0.10
2007,01,12,15,18,0.10
2007,01,12,15,19,0.10
2007,01,12,15,20,0.10
2007,01,12,15,21,0.10
2007,01,12,15,22,0.10
2007,01,12,15,23,0.10
2007,01,12,15,24,0.10
2007,01,12,15,25,0.10
2007,01,12,15,26,0.10
2007,01,12,15,27,0.10
2007,01,12,15,28,0.10
2007,01,12,15,29,0.00
2007,01,12,15,30,0.00
2007,01,12,15,31,0.00
2007,01,12,15,32,0.00
2007,01,12,15,33,0.00
2007,01,12,15,34,0.00
2007,01,12,15,35,0.00
2007,01,12,15,36,0.00
2007,01,12,15,37,0.00
2007,01,12,15,38,0.00
2007,01,12,15,39,0.00
2007,01,12,15,40,-0.10
2007,01,12,15,41,-0.10
2007,01,12,15,42,-0.10
2007,01,12,15,43,-0.10
2007,01,12,15,44,-0.10
2007,01,12,15,45,-0.10
2007,01,12,15,46,-0.10
2007,01,12,15,47,-0.10
2007,01,12,15,48,-0.10
2007,01,12,15,49,-0.10
2007,01,12,15,50,-0.10
2007,01,12,15,51,-0.10
2007,01,12,15,52,-0.20
2007,01,12,15,53,-0.20
2007,01,12,15,54,-0.20
2007,01,12,15,55,-0.20
2007,01,12,15,56,-0.20
2007,01,12,15,57,-0.20
2007,01,12,15,58,-0.30
2007,01,12,15,59,-0.30
2007,01,12,16,00,-0.30
2007,01,12,16,01,-0.30
2007,01,12,16,02,-0.30
2007,01,12,16,03,-0.30
2007,01,12,16,04,-0.30
2007,01,12,16,05,-0.30
2007,01,12,16,06,-0.30
2007,01,12,16,07,-0.30
2007,01,12,16,08,-0.30
2007,01,12,16,09,-0.30
2007,01,12,16,10,-0.30
2007,01,12,16,11,-0.40
2007,01,12,16,12,-0.40
2007,01,12,16,13,-0.40
2007,01,12,16,14,-0.40
2007,01,12,16,15,-0.40
2007,01,12,16,16,-0.40
2007,01,12,16,17,-0.40
2007,01,12,16,18,-0.50
2007,01,12,16,19,-0.50
2007,01,12,16,20,-0.50
2007,01,12,16,21,-0.60
2007,01,12,16,22,-0.60
2007,01,12,16,23,-0.60
2007,01,12,16,24,-0.60
2007,01,12,16,25,-0.70
2007,01,12,16,26,-0.70
2007,01,12,16,27,-0.70
2007,01,12,16,28,-0.80
2007,01,12,16,29,-0.80
2007,01,12,16,30,-0.80
2007,01,12,16,31,-0.80
2007,01,12,16,32,-0.80
2007,01,12,16,33,-0.90
2007,01,12,16,34,-0.90
2007,01,12,16,35,-0.90
2007,01,12,16,36,-1.00
2007,01,12,16,37,-1.00
2007,01,12,16,38,-1.10
2007,01,12,16,39,-1.10
2007,01,12,16,40,-1.10
2007,01,12,16,41,-1.20
2007,01,12,16,42,-1.20
2007,01,12,16,43,-1.20
2007,01,12,16,44,-1.30
2007,01,12,16,45,-1.30
2007,01,12,16,46,-1.30
2007,01,12,16,47,-1.40
2007,01,12,16,48,-1.40
2007,01,12,16,49,-1.40
2007,01,12,16,50,-1.40
2007,01,12,16,51,-1.50
2007,01,12,16,52,-1.50
2007,01,12,16,53,-1.60
2007,01,12,16,54,-1.60
2007,01,12,16,55,-1.60
2007,01,12,16,56,-1.70
2007,01,12,16,57,-1.70
2007,01,12,16,58,-1.70
2007,01,12,16,59,-1.80
2007,01,12,17,00,-1.80
2007,01,12,17,01,-1.80
2007,01,12,17,02,-1.90
2007,01,12,17,03,-1.90
2007,01,12,17,04,-2.00
2007,01,12,17,05,-2.00
2007,01,12,17,06,-2.00
2007,01,12,17,07,-2.10
2007,01,12,17,08,-2.10
2007,01,12,17,09,-2.10
2007,01,12,17,10,-2.10
2007,01,12,17,11,-2.10
2007,01,12,17,12,-2.20
2007,01,12,17,13,-2.20
2007,01,12,17,14,-2.20
2007,01,12,17,15,-2.20
2007,01,12,17,16,-2.20
2007,01,12,17,17,-2.20
2007,01,12,17,18,-2.20
2007,01,12,17,19,-2.30
2007,01,12,17,20,-2.30
2007,01,12,17,21,-2.30
2007,01,12,17,22,-2.30
2007,01,12,17,23,-2.30
2007,01,12,17,24,-2.30
2007,01,12,17,25,-2.30
2007,01,12,17,26,-2.40
2007,01,12,17,27,-2.40
2007,01,12,17,28,-2.40
2007,01,12,17,29,-2.40
2007,01,12,17,30,-2.50
2007,01,12,17,31,-2.50
2007,01,12,17,32,-2.50
2007,01,12,17,33,-2.60
2007,01,12,17,34,-2.60
2007,01,12,17,35,-2.60
2007,01,12,17,36,-2.60
2007,01,12,17,37,-2.70
2007,01,12,17,38,-2.70
2007,01,12,17,39,-2.70
2007,01,12,17,40,-2.70
2007,01,12,17,41,-2.70
2007,01,12,17,42,-2.70
2007,01,12,17,43,-2.70
2007,01,12,17,44,-2.70
2007,01,12,17,45,-2.70
2007,01,12,17,46,-2.70
2007,01,12,17,47,-2.70
2007,01,12,17,48,-2.70
2007,01,12,17,49,-2.80
2007,01,12,17,50,-2.80
2007,01,12,17,51,-2.80
2007,01,12,17,52,-2.80
2007,01,12,17,53,-2.80
2007,01,12,17,54,-2.80
2007,01,12,17,55,-2.90
2007,01,12,17,56,-2.90
2007,01,12,17,57,-2.90
2007,01,12,17,58,-2.90
2007,01,12,17,59,-2.90
2007,01,12,18,00,-2.90
2007,01,12,18,01,-2.90
2007,01,12,18,02,-2.90
2007,01,12,18,03,-2.90
2007,01,12,18,04,-2.90
2007,01,12,18,05,-2.90
2007,01,12,18,06,-2.90
2007,01,12,18,07,-2.90
2007,01,12,18,08,-2.90
2007,01,12,18,09,-3.00
2007,01,12,18,10,-3.00
2007,01,12,18,11,-3.00